Вернуться в каталог

KUIPER-00192

АктивенСвязьLEO
NORAD 68575·PAYLOAD·🇺🇸 United States

Запущен Apr 4, 2026 с Cape Canaveral Space Force Station

Loading…

Ближайшие Пролёты (ближайшие 24 часа)

TLE

СвежийSource: CelesTrak SupGP

Эпоха: Sep 14, 2026, 18:55 UTC

1 68575C 26072C   26257.78865741  .00000195  00000+0  25578-4 0  2578
2 68575  51.8985 156.9306 0001071  91.0725 357.9030 14.79934851    11

Отслеживайте KUIPER-00192 в реальном времени с AllMySat

Download on the App Store